Вернуться в каталог

CZ-4C DEB

АктивенPO
NORAD 38294·DEBRIS·🇨🇳 China

Запущен Nov 4, 2010 с Taiyuan Satellite Launch Center

Loading…

Ближайшие Пролёты (ближайшие 24 часа)

TLE

СвежийSource: Space-Track

Эпоха: Sep 14, 2026, 07:45 UTC

1 38294U 10059D   26257.32306078  .00000255  00000-0  24694-3 0  9992
2 38294  98.6356  99.5628 0259251 261.1216  96.0505 13.73912298781306

Отслеживайте CZ-4C DEB в реальном времени с AllMySat

Download on the App Store